Retour au catalogue

IGS O-8

ActifMilitaireSSO
NORAD 58762·PAYLOAD·🇯🇵 Japan

Lancé Jan 12, 2024 depuis Tanegashima Space Center

Loading…

Prochains Passages (prochaines 24 heures)

TLE

PériméSource: Mike McCants

Époque: Aug 13, 2026, 00:41 UTC

1 58762U 24010A   26225.02905224 0.00000000  00000-0  00000-0 0    09
2 58762  97.3453 346.1533 0000980 330.0712  29.9286 15.27638576    05

Suivez IGS O-8 en temps réel avec AllMySat

Download on the App Store